User: anonymous   Login
Location: Laterina
(43.5167°N, 11.7167°E)
Time: 14:40:11
(UTC+00:00)
Language:

USA 238 - Orbit

View from above orbital plane
View from above orbital plane
View from above satellite
View from above satellite

Ground track
Ground track

The orbit data is extracted from the following two-line orbital elements,

1 38758U 12048A   21197.88101379 0.00000000  00000-0  00000-0 0    06
2 38758  63.4426 107.1952 0156648 359.3192   0.6808 13.40817131    06
Epoch (UTC): 16 July 2021 21:08:39
Eccentricity: 0.0156648
inclination: 63.4426°
perigee height: 989 km
apogee height: 1223 km
right ascension of ascending node: 107.1952°
argument of perigee: 359.3192°
revolutions per day: 13.40817131
mean anomaly at epoch: 0.6808°
orbit number at epoch: 0

The dashed part of the orbit path shows where the satellite is in the earth's shadow,  

DLR